EW4235 Weather Reports


Display with metric or nautical units.
time (UTC)temp
F
wind
direction
speed
MPH
gust
MPH
rain 1hr
in
rain 24hr
in
rain mn
in
humidity
%
barometer
mb
20180117214855 22 16 2.0 7.0 0.00 0.00 0.00 59 1026.4
20180117214355 22 302 2.0 6.0 0.00 0.00 0.00 59 1026.5
20180117213854 22 328 2.0 7.0 0.00 0.00 0.00 59 1026.5
20180117213357 22 309 2.0 7.0 0.00 0.00 0.00 58 1026.7
20180117212906 22 339 2.0 13.0 0.00 0.00 0.00 59 1026.4
20180117212856 22 337 2.0 8.0 0.00 0.00 0.00 58 1026.5
20180117211858 22 331 2.0 13.0 0.00 0.00 0.00 58 1026.3
20180117211356 22 24 3.0 14.0 0.00 0.00 0.00 58 1026.3
20180117210854 22 309 2.0 14.0 0.00 0.00 0.00 58 1026.5
20180117210355 22 359 2.0 12.0 0.00 0.00 0.00 58 1026.4
20180117205909 22 301 3.0 11.0 0.00 0.00 0.00 58 1026.4
20180117205854 22 84 2.0 12.0 0.00 0.00 0.00 59 1026.7
20180117204853 22 316 3.0 11.0 0.00 0.00 0.00 59 1026.5
20180117204355 22 354 2.0 9.0 0.00 0.00 0.00 58 1026.4
20180117203856 23 327 1.0 4.0 0.00 0.00 0.00 60 1026.3
20180117203352 23 53 1.0 5.0 0.00 0.00 0.00 58 1026.4
20180117202901 23 7 2.0 6.0 0.00 0.00 0.00 58 1026.7
20180117202855 23 283 1.0 6.0 0.00 0.00 0.00 59 1026.4
20180117201852 23 350 2.0 6.0 0.00 0.00 0.00 58 1026.7
20180117201353 23 353 2.0 6.0 0.00 0.00 0.00 58 1026.7
20180117200851 23 312 3.0 6.0 0.00 0.00 0.00 58 1026.9
20180117200357 22 28 3.0 12.0 0.00 0.00 0.00 57 1026.9
20180117200352 22 19 2.0 6.0 0.00 0.00 0.00 59 1027.0
20180117195848 22 302 2.0 8.0 0.00 0.00 0.00 59 1027.0
20180117194847 22 316 3.0 12.0 0.00 0.00 0.00 60 1027.1
20180117194347 22 287 3.0 10.0 0.00 0.00 0.00 59 1026.9
20180117193847 22 299 3.0 8.0 0.00 0.00 0.00 58 1026.8
20180117193346 22 310 3.0 8.0 0.00 0.00 0.00 60 1026.9
20180117192849 22 344 4.0 11.0 0.00 0.00 0.00 58 1026.9
20180117192346 22 44 3.0 11.0 0.00 0.00 0.00 60 1026.7
20180117191846 22 303 2.0 8.0 0.00 0.00 0.00 61 1026.8
20180117191347 22 351 2.0 6.0 0.00 0.00 0.00 62 1026.8
20180117190847 22 313 2.0 6.0 0.00 0.00 0.00 62 1026.9
20180117190346 22 323 2.0 6.0 0.00 0.00 0.00 61 1026.9
20180117185849 22 354 1.0 5.0 0.00 0.00 0.00 63 1027.1
20180117185414 22 66 4.0 10.0 0.00 0.00 0.00 62 1027.3
20180117185357 22 347 2.0 10.0 0.00 0.00 0.00 63 1027.2
20180117184856 22 324 3.0 9.0 0.00 0.00 0.00 61 1027.4
20180117184345 22 327 3.0 9.0 0.00 0.00 0.00 62 1027.4
20180117183357 22 292 3.0 9.0 0.00 0.00 0.00 62 1027.4
20180117182845 22 318 4.0 9.0 0.00 0.00 0.00 61 1027.6
20180117182346 22 58 4.0 9.0 0.00 0.00 0.00 61 1027.5
20180117181846 22 321 3.0 9.0 0.00 0.00 0.00 60 1027.5
20180117181344 22 12 3.0 8.0 0.00 0.00 0.00 62 1027.6
20180117180851 22 8 3.0 8.0 0.00 0.00 0.00 61 1027.7
20180117180844 22 309 3.0 8.0 0.00 0.00 0.00 62 1027.6
20180117175844 22 337 2.0 8.0 0.00 0.00 0.00 62 1027.7
20180117175341 22 319 3.0 12.0 0.00 0.00 0.00 63 1027.6
20180117174840 22 14 4.0 12.0 0.00 0.00 0.00 60 1027.6
20180117174342 22 285 3.0 11.0 0.00 0.00 0.00 61 1027.6
20180117173842 22 332 3.0 11.0 0.00 0.00 0.00 61 1027.7
20180117173340 22 13 4.0 11.0 0.00 0.00 0.00 60 1027.9
20180117172838 22 13 4.0 13.0 0.00 0.00 0.00 61 1027.9
20180117172339 22 297 3.0 13.0 0.00 0.00 0.00 61 1028.0
20180117171834 23 319 2.0 8.0 0.00 0.00 0.00 61 1028.1
20180117171339 23 342 2.0 6.0 0.00 0.00 0.00 61 1028.3
20180117170843 22 290 3.0 12.0 0.00 0.00 0.00 62 1028.3
20180117170834 22 292 3.0 12.0 0.00 0.00 0.00 63 1028.3
20180117165838 22 241 4.0 11.0 0.00 0.00 0.00 61 1028.4
20180117165332 22 320 5.0 12.0 0.00 0.00 0.00 60 1028.6
20180117164833 22 346 5.0 12.0 0.00 0.00 0.00 61 1028.6
20180117164333 22 2 4.0 11.0 0.00 0.00 0.00 61 1028.8
20180117163832 22 172 4.0 11.0 0.00 0.00 0.00 62 1028.8
20180117163337 22 293 3.0 10.0 0.00 0.00 0.00 63 1028.8
20180117163330 22 316 2.0 10.0 0.00 0.00 0.00 63 1028.8
20180117162333 22 295 2.0 9.0 0.00 0.00 0.00 64 1029.0
20180117161845 22 1 3.0 10.0 0.00 0.00 0.00 64 1029.1
20180117161330 21 299 3.0 11.0 0.00 0.00 0.00 63 1029.3
20180117160833 22 50 3.0 11.0 0.00 0.00 0.00 63 1029.3
20180117160330 21 302 3.0 9.0 0.00 0.00 0.00 63 1029.3
20180117155838 21 305 3.0 9.0 0.00 0.00 0.00 63 1029.5
20180117155830 21 278 3.0 9.0 0.00 0.00 0.00 62 1029.5
20180117154830 21 338 4.0 10.0 0.00 0.00 0.00 63 1029.5
20180117154331 21 297 3.0 10.0 0.00 0.00 0.00 63 1029.6
20180117153827 21 307 3.0 16.0 0.00 0.00 0.00 64 1029.7
20180117153339 21 306 6.0 16.0 0.00 0.00 0.00 63 1029.7
20180117153330 21 37 5.0 16.0 0.00 0.00 0.00 64 1029.6
20180117152341 21 300 4.0 13.0 0.00 0.00 0.00 64 1029.6
20180117152329 21 306 5.0 13.0 0.00 0.00 0.00 62 1029.5
20180117151328 21 333 4.0 11.0 0.00 0.00 0.00 64 1029.6
20180117150832 21 302 3.0 12.0 0.00 0.00 0.00 65 1029.7
20180117150331 21 18 5.0 15.0 0.00 0.00 0.00 66 1029.4
20180117145838 21 292 4.0 13.0 0.00 0.00 0.00 65 1029.6
20180117145827 21 288 5.0 15.0 0.00 0.00 0.00 65 1029.5
20180117144828 21 302 5.0 14.0 0.00 0.00 0.00 64 1029.6
20180117144329 21 323 5.0 15.0 0.00 0.00 0.00 64 1029.7
20180117143830 21 15 5.0 15.0 0.00 0.00 0.00 63 1029.7
20180117143327 22 339 4.0 15.0 0.00 0.00 0.00 64 1029.8
20180117142834 22 307 5.0 12.0 0.00 0.00 0.00 65 1029.7
20180117142827 22 297 4.0 12.0 0.00 0.00 0.00 65 1029.9
20180117141833 22 318 5.0 12.0 0.00 0.00 0.00 64 1029.6
20180117141327 22 317 5.0 11.0 0.00 0.00 0.00 64 1029.5
20180117140830 22 301 4.0 17.0 0.00 0.00 0.00 65 1029.3
20180117140325 22 302 4.0 17.0 0.00 0.00 0.00 64 1029.3
20180117135829 22 311 3.0 8.0 0.00 0.00 0.00 66 1029.2
20180117135327 22 345 3.0 10.0 0.00 0.00 0.00 67 1029.1
20180117134825 22 300 4.0 10.0 0.00 0.00 0.00 66 1029.2
20180117134327 22 306 5.0 10.0 0.00 0.00 0.00 67 1029.1
20180117133829 22 356 3.0 9.0 0.00 0.00 0.00 68 1029.0
20180117133330 22 288 2.0 13.0 0.00 0.00 0.00 71 1029.0
20180117132834 22 1 4.0 8.0 0.00 0.00 0.00 71 1028.9
20180117132827 22 320 3.0 13.0 0.00 0.00 0.00 70 1028.9
20180117131825 22 294 4.0 16.0 0.00 0.00 0.00 72 1029.0
20180117131325 22 312 3.0 16.0 0.00 0.00 0.00 74 1029.0
20180117130822 22 351 2.0 8.0 0.00 0.00 0.00 76 1029.0
20180117130323 21 347 4.0 11.0 0.00 0.00 0.00 75 1029.1
20180117125838 22 328 2.0 9.0 0.00 0.00 0.00 78 1028.8
20180117125826 21 301 4.0 11.0 0.00 0.00 0.00 75 1029.0
20180117124822 22 319 2.0 7.0 0.00 0.00 0.00 79 1028.9
20180117124321 22 11 3.0 7.0 0.00 0.00 0.00 80 1028.8
20180117123829 22 349 2.0 7.0 0.00 0.00 0.00 82 1028.6
20180117123821 22 323 3.0 7.0 0.00 0.00 0.00 81 1028.6
20180117122821 22 353 3.0 13.0 0.00 0.00 0.00 83 1028.5
20180117122331 22 316 4.0 11.0 0.00 0.00 0.00 83 1028.7
20180117122320 22 314 4.0 13.0 0.00 0.00 0.00 83 1028.6
20180117121320 22 345 4.0 11.0 0.00 0.00 0.00 84 1028.8
20180117120819 22 2 4.0 13.0 0.00 0.00 0.00 84 1028.6
20180117120319 22 342 4.0 13.0 0.00 0.00 0.00 84 1028.6
20180117115818 22 339 3.0 8.0 0.00 0.00 0.00 85 1028.6
20180117115317 23 346 3.0 10.0 0.00 0.00 0.00 86 1028.5
20180117114819 23 292 2.0 10.0 0.00 0.00 0.00 88 1028.6
20180117114328 23 305 2.0 5.0 0.00 0.00 0.00 89 1028.5
20180117114320 23 356 1.0 7.0 0.00 0.00 0.00 89 1028.5
20180117113323 23 326 2.0 8.0 0.00 0.00 0.00 89 1028.5
20180117112817 23 358 2.0 9.0 0.00 0.00 0.00 89 1028.4
20180117112319 23 301 3.0 11.0 0.00 0.00 0.00 89 1028.5
20180117111816 23 300 2.0 11.0 0.00 0.00 0.00 90 1028.6
20180117111319 23 328 2.0 8.0 0.00 0.00 0.00 90 1028.4
20180117110816 23 323 2.0 5.0 0.00 0.00 0.00 90 1028.3
20180117110315 23 306 2.0 6.0 0.00 0.00 0.00 90 1028.4
20180117105823 23 335 3.0 10.0 0.00 0.00 0.00 90 1028.4
20180117105815 23 305 2.0 6.0 0.00 0.00 0.00 90 1028.5
20180117104816 23 1 2.0 11.0 0.00 0.00 0.00 90 1028.4
20180117104312 24 301 2.0 11.0 0.00 0.00 0.00 91 1028.5
20180117103814 24 297 2.0 6.0 0.00 0.00 0.00 91 1028.5
20180117103315 24 312 2.0 8.0 0.00 0.00 0.00 91 1028.4
20180117102817 24 319 3.0 8.0 0.00 0.00 0.00 90 1028.2
20180117102810 24 308 3.0 8.0 0.00 0.00 0.00 91 1028.4
20180117101812 25 309 3.0 8.0 0.00 0.00 0.00 91 1028.1
20180117101311 25 22 2.0 11.0 0.00 0.00 0.00 90 1027.9
20180117100810 25 347 2.0 11.0 0.00 0.00 0.00 91 1027.8
20180117100311 25 341 2.0 10.0 0.00 0.00 0.00 90 1027.7
20180117095809 26 302 2.0 10.0 0.00 0.00 0.00 90 1027.6
20180117095310 26 4 2.0 7.0 0.00 0.00 0.00 90 1027.7
20180117094812 26 302 3.0 7.0 0.00 0.00 0.00 90 1027.5
20180117094315 26 314 3.0 8.0 0.00 0.00 0.00 89 1027.4
20180117093810 27 311 3.0 9.0 0.00 0.00 0.00 88 1027.3
20180117093310 27 352 3.0 9.0 0.00 0.00 0.00 88 1027.3
20180117092813 28 304 2.0 7.0 0.00 0.00 0.00 88 1027.4
20180117092311 28 300 1.0 3.0 0.00 0.00 0.00 89 1027.3
20180117091810 28 339 1.0 5.0 0.00 0.00 0.00 90 1027.2
20180117091311 28 346 1.0 7.0 0.00 0.00 0.00 90 1027.0
20180117090810 28 293 2.0 7.0 0.00 0.00 0.00 90 1026.9
20180117090315 28 297 2.0 4.0 0.00 0.00 0.00 90 1026.8
20180117085810 28 341 2.0 7.0 0.00 0.00 0.00 90 1026.9
20180117085311 28 344 2.0 8.0 0.00 0.00 0.00 91 1026.9
20180117084809 28 329 2.0 8.0 0.00 0.00 0.00 91 1027.0
20180117084309 28 322 2.0 7.0 0.00 0.00 0.00 91 1026.9
20180117083809 29 340 2.0 7.0 0.00 0.00 0.00 90 1026.8
20180117083310 29 304 3.0 9.0 0.00 0.00 0.00 90 1026.9
20180117082811 29 340 2.0 9.0 0.00 0.00 0.00 89 1027.0
20180117082316 29 0 3.0 7.0 0.00 0.00 0.00 88 1027.1
20180117082309 29 312 2.0 7.0 0.00 0.00 0.00 89 1027.0
20180117081920 29 15 3.0 12.0 0.00 0.00 0.00 88 1027.1
20180117080810 29 344 3.0 12.0 0.00 0.00 0.00 88 1027.0
20180117080311 30 359 2.0 7.0 0.00 0.00 0.00 88 1027.0
20180117075812 30 297 2.0 6.0 0.00 0.00 0.00 88 1027.1
20180117075309 30 323 2.0 7.0 0.00 0.00 0.00 88 1027.0
20180117074807 30 309 2.0 10.0 0.00 0.00 0.00 87 1027.0
20180117074308 30 355 2.0 10.0 0.00 0.00 0.00 88 1027.0
20180117073808 30 314 2.0 8.0 0.00 0.00 0.00 87 1027.0
20180117073307 30 311 3.0 8.0 0.00 0.00 0.00 87 1027.0
20180117072807 31 343 2.0 7.0 0.00 0.00 0.00 86 1026.9
20180117072311 31 295 2.0 5.0 0.00 0.00 0.00 86 1026.8
20180117071808 31 278 2.0 8.0 0.00 0.00 0.00 86 1026.8
20180117071308 31 295 3.0 8.0 0.00 0.00 0.00 86 1026.8
20180117070807 31 317 3.0 8.0 0.00 0.00 0.00 87 1026.7
20180117070309 31 313 2.0 7.0 0.00 0.00 0.00 87 1026.7
20180117065809 31 339 1.0 6.0 0.00 0.00 0.00 88 1026.5
20180117065308 31 328 1.0 6.0 0.00 0.00 0.00 89 1026.4
20180117064807 31 84 2.0 4.0 0.00 0.00 0.00 89 1026.5
20180117064314 31 330 2.0 8.0 0.00 0.00 0.00 89 1026.5
20180117063810 31 302 2.0 8.0 0.00 0.00 0.00 89 1026.8
20180117063308 31 317 1.0 4.0 0.00 0.00 0.00 89 1026.8
20180117062806 31 318 1.0 5.0 0.00 0.00 0.00 90 1026.8
20180117062307 31 320 2.0 5.0 0.00 0.00 0.00 90 1026.7
20180117061806 31 350 1.0 6.0 0.00 0.00 0.00 90 1026.3
20180117061318 31 351 1.0 4.0 0.00 0.00 0.00 90 1026.2
20180117061307 31 352 1.0 6.0 0.00 0.00 0.00 90 1026.1
20180117060303 31 298 0.0 4.0 0.00 0.00 0.00 90 1026.2
20180117055801 31 358 1.0 6.0 0.00 0.00 0.00 89 1026.4
20180117055301 31 307 1.0 6.0 0.00 0.00 0.00 89 1026.7
20180117054802 31 301 2.0 5.0 0.00 0.00 0.00 89 1027.0
20180117054300 31 345 2.0 5.0 0.00 0.00 0.00 89 1027.0
20180117053804 32 328 1.0 5.0 0.00 0.00 0.00 88 1027.2
20180117053757 31 303 1.0 5.0 0.00 0.00 0.00 88 1027.1
20180117052758 32 349 1.0 5.0 0.00 0.00 0.00 87 1027.1
20180117052300 32 5 1.0 3.0 0.00 0.00 0.00 86 1027.1
20180117051804 33 325 1.0 4.0 0.00 0.00 0.00 85 1027.2
20180117051757 32 325 1.0 3.0 0.00 0.00 0.00 85 1027.1
20180117050756 33 318 1.0 4.0 0.00 0.00 0.00 84 1027.2
20180117050254 33 290 0.0 2.0 0.00 0.00 0.00 83 1027.1
20180117045752 33 12 0.0 2.0 0.00 0.00 0.00 82 1027.2
20180117045252 33 23 0.0 2.0 0.00 0.00 0.00 82 1027.2
20180117044752 33 347 0.0 2.0 0.00 0.00 0.00 81 1027.3
20180117044250 33 340 1.0 3.0 0.00 0.00 0.00 81 1027.4
20180117043749 33 276 2.0 6.0 0.00 0.00 0.00 80 1027.5
20180117043300 34 301 3.0 6.0 0.00 0.00 0.00 76 1027.5
20180117043249 33 323 2.0 6.0 0.00 0.00 0.00 78 1027.5
20180117042804 34 332 3.0 8.0 0.00 0.00 0.00 74 1027.5
20180117041749 34 297 2.0 8.0 0.00 0.00 0.00 72 1027.5
20180117041249 34 286 2.0 5.0 0.00 0.00 0.00 71 1027.5
20180117040752 34 303 1.0 4.0 0.00 0.00 0.00 72 1027.4
20180117040303 34 310 1.0 2.0 0.00 0.00 0.00 71 1027.2
20180117040250 34 309 1.0 2.0 0.00 0.00 0.00 72 1027.4
20180117035259 34 133 0.0 1.0 0.00 0.00 0.00 71 1027.2
20180117034753 34 133 0.0 0.0 0.00 0.00 0.00 71 1027.2
20180117034251 34 133 0.0 0.0 0.00 0.00 0.00 71 1027.1
20180117033747 34 133 0.0 0.0 0.00 0.00 0.00 72 1027.1
20180117033256 34 133 0.0 1.0 0.00 0.00 0.00 73 1027.3
20180117033249 34 132 0.0 0.0 0.00 0.00 0.00 72 1027.2
20180117032245 33 133 0.0 1.0 0.00 0.00 0.00 73 1027.4
20180117031744 33 133 0.0 0.0 0.00 0.00 0.00 74 1027.4
20180117031244 34 133 0.0 0.0 0.00 0.00 0.00 73 1027.4
20180117030747 34 133 0.0 0.0 0.00 0.00 0.00 73 1027.4
20180117030245 34 133 0.0 0.0 0.00 0.00 0.00 72 1027.3
20180117025745 34 133 0.0 0.0 0.00 0.00 0.00 72 1027.4
20180117025244 33 133 0.0 0.0 0.00 0.00 0.00 72 1027.3
20180117024746 33 132 0.0 0.0 0.00 0.00 0.00 72 1027.2
20180117024242 33 133 0.0 0.0 0.00 0.00 0.00 73 1027.2
20180117023742 33 133 0.0 1.0 0.00 0.00 0.00 73 1027.2
20180117023252 33 133 0.0 0.0 0.00 0.00 0.00 74 1027.4
20180117023243 33 133 0.0 1.0 0.00 0.00 0.00 73 1027.3
20180117022950 33 133 0.0 0.0 0.00 0.00 0.00 74 1027.4
20180117021741 33 133 0.0 0.0 0.00 0.00 0.00 75 1027.4
20180117021244 33 133 0.0 0.0 0.00 0.00 0.00 74 1027.5
20180117020747 33 133 0.0 0.0 0.00 0.00 0.00 73 1027.5
20180117020242 33 133 0.0 0.0 0.00 0.00 0.00 72 1027.5
20180117015745 33 133 0.0 0.0 0.00 0.00 0.00 72 1027.5
20180117015241 33 133 0.0 0.0 0.00 0.00 0.00 71 1027.6
20180117014750 33 133 0.0 0.0 0.00 0.00 0.00 71 1027.5
20180117014743 33 133 0.0 0.0 0.00 0.00 0.00 70 1027.5
20180117014449 33 133 0.0 0.0 0.00 0.00 0.00 71 1027.5
20180117013240 33 133 0.0 0.0 0.00 0.00 0.00 71 1027.5
20180117012743 33 133 0.0 0.0 0.00 0.00 0.00 71 1027.6
20180117012242 33 133 0.0 0.0 0.00 0.00 0.00 70 1027.6
20180117011746 33 133 0.0 0.0 0.00 0.00 0.00 70 1027.6
20180117011241 33 133 0.0 0.0 0.00 0.00 0.00 71 1027.7
20180117010743 33 133 0.0 0.0 0.00 0.00 0.00 70 1027.7
20180117010241 33 133 0.0 0.0 0.00 0.00 0.00 69 1027.7
20180117005743 33 133 0.0 0.0 0.00 0.00 0.00 69 1027.7
20180117005242 33 132 0.0 0.0 0.00 0.00 0.00 69 1027.8
20180117004748 33 133 0.0 0.0 0.00 0.00 0.00 68 1027.8
20180117004741 33 133 0.0 0.0 0.00 0.00 0.00 70 1027.8
20180117003740 33 132 0.0 0.0 0.00 0.00 0.00 67 1027.7
20180117003241 33 132 0.0 0.0 0.00 0.00 0.00 67 1027.7
20180117002741 33 133 0.0 0.0 0.00 0.00 0.00 67 1027.8
20180117002240 33 132 0.0 0.0 0.00 0.00 0.00 68 1027.8
20180117001809 33 132 0.0 0.0 0.00 0.00 0.00 68 1027.8
20180117001241 34 132 0.0 0.0 0.00 0.00 0.00 68 1027.7
20180117000743 34 132 0.0 0.0 0.00 0.00 0.00 65 1027.6
20180117000241 34 132 0.0 0.0 0.00 0.00 0.00 64 1027.6
20180116235741 34 132 0.0 0.0 0.00 0.00 0.00 64 1027.7
20180116235242 34 132 0.0 0.0 0.00 0.00 0.00 64 1027.7
20180116234740 34 132 0.0 0.0 0.00 0.00 0.00 64 1027.7
20180116234238 34 132 0.0 0.0 0.00 0.00 0.00 63 1027.8
20180116233740 34 132 0.0 0.0 0.00 0.00 0.00 63 1027.8
20180116233240 34 132 0.0 0.0 0.00 0.00 0.00 65 1027.8
20180116232738 34 132 0.0 0.0 0.00 0.00 0.00 64 1027.7
20180116232239 34 132 0.0 0.0 0.00 0.00 0.00 62 1027.7
20180116231739 34 132 0.0 0.0 0.00 0.00 0.00 61 1027.7
20180116231237 35 132 0.0 0.0 0.00 0.00 0.00 61 1027.7
20180116230736 35 132 0.0 0.0 0.00 0.00 0.00 62 1027.7
20180116230236 35 132 0.0 0.0 0.00 0.00 0.00 61 1027.7
20180116225736 35 132 0.0 0.0 0.00 0.00 0.00 60 1027.7
20180116225240 35 132 0.0 0.0 0.00 0.00 0.00 60 1027.7
20180116224735 35 133 0.0 0.0 0.00 0.00 0.00 60 1027.7
20180116224234 35 133 0.0 0.0 0.00 0.00 0.00 60 1027.8
20180116223736 36 133 0.0 0.0 0.00 0.00 0.00 57 1027.8
20180116223237 36 132 0.0 0.0 0.00 0.00 0.00 56 1027.7
20180116222735 36 132 0.0 0.0 0.00 0.00 0.00 56 1027.6
20180116222233 36 132 0.0 0.0 0.00 0.00 0.00 55 1027.6
20180116221733 36 132 0.0 0.0 0.00 0.00 0.00 55 1027.7
20180116221232 37 132 0.0 0.0 0.00 0.00 0.00 54 1027.8
20180116220735 37 132 0.0 0.0 0.00 0.00 0.00 54 1027.8
20180116220231 37 244 0.0 0.0 0.00 0.00 0.00 53 1027.9
20180116215732 37 244 0.0 0.0 0.00 0.00 0.00 53 1028.0